North Platte, NE

2:14 PM CST on January 21, 2017 (GMT -0600)
North Platte Regional Airport Lee Bird Field

Weather History for KLBF - April, 2013

Change the Weather History Date:

Friday, April 26, 2013

  Actual Average Record
Temperature  
Mean Temperature 55 °F 51 °F  
Max Temperature 76 °F 66 °F 90 °F (1981)
Min Temperature 33 °F 37 °F 23 °F (2006)
Degree Days  
Heating Degree Days 10 14  
Month to date heating degree days 632 472  
Since 1 July heating degree days 6465 6337  
Cooling Degree Days 0 0  
Month to date cooling degree days 0 0  
Year to date cooling degree days 0 0  
Growing Degree Days 4 (Base 50)    
Moisture  
Dew Point 27 °F    
Average Humidity 45    
Maximum Humidity 76    
Minimum Humidity 14    
Precipitation  
Precipitation 0.00 in 0.09 in 1.05 in (1951)
Month to date precipitation 1.27 1.91  
Year to date precipitation 3.04 3.80  
Snow  
Snow 0.00 in 0.10 in 3.00 in (1958)
Month to date snowfall 6.7 3.1  
Since 1 July snowfall 29.3 28.4  
Snow Depth 0.00 in    
Sea Level Pressure  
Sea Level Pressure 30.03 in    
Wind  
Wind Speed 8 mph (NNE)    
Max Wind Speed 23 mph    
Max Gust Speed 30 mph    
Visibility 10 miles    
Events      
T = Trace of Precipitation, MM = Missing Value Source: NWS Daily Summary

Daily Weather History Graph

Daily Weather History Graph

Search for Another Location

Airport or City:

Trip Planner

Search our weather history database for the weather conditions in past years. The results will help you decide how hot, cold, wet, or windy it might be!

Date:

Astronomy

Apr. 26, 2013 Rise Set
Actual Time 6:46 AM CDT 8:34 PM CDT
Civil Twilight 6:17 AM CDT 9:04 PM CDT
Nautical Twilight 5:41 AM CDT 9:40 PM CDT
Astronomical Twilight 5:03 AM CDT 10:18 PM CDT
Moon 10:00 PM CDT (4/26) 7:15 AM CDT (4/26)
Length of Visible Light 14h 46m
Length of Day
13h 47m
Full, 99% of the Moon is Illuminated
Apr 26
Full
May 2
Last Quarter
May 9
New
May 17
First Quarter
May 24
Full

Hourly Weather History & Observations

Time (CDT) Temp. Windchill Dew Point Humidity Pressure Visibility Wind Dir Wind Speed Gust Speed Precip Events Conditions
12:53 AM 52.0 °F - 26.1 °F 37% 29.89 in 10.0 mi South 15.0 mph - N/A   Clear
1:53 AM 51.8 °F - 26.6 °F 38% 29.93 in 10.0 mi South 8.1 mph - N/A   Clear
2:53 AM 50.0 °F - 27.0 °F 41% 29.91 in 10.0 mi SE 3.5 mph - N/A   Clear
3:53 AM 46.9 °F - 26.1 °F 44% 29.94 in 10.0 mi West 9.2 mph - N/A   Clear
4:53 AM 39.0 °F 36.8 °F 27.0 °F 62% 29.96 in 10.0 mi SW 3.5 mph - N/A   Clear
5:53 AM 39.9 °F 37.8 °F 28.0 °F 63% 29.96 in 10.0 mi SSW 3.5 mph - N/A   Clear
6:53 AM 34.0 °F 31.0 °F 27.0 °F 75% 29.99 in 10.0 mi NNW 3.5 mph - N/A   Clear
7:53 AM 37.9 °F 33.5 °F 30.9 °F 76% 30.01 in 10.0 mi WNW 5.8 mph - N/A   Clear
8:53 AM 48.0 °F - 33.1 °F 56% 30.02 in 10.0 mi WNW 6.9 mph - N/A   Clear
9:53 AM 60.1 °F - 35.1 °F 39% 30.01 in 10.0 mi WNW 4.6 mph - N/A   Clear
10:53 AM 71.1 °F - 24.1 °F 17% 30.01 in 10.0 mi NNE 18.4 mph - N/A   Clear
11:53 AM 73.0 °F - 23.0 °F 15% 30.04 in 10.0 mi NE 16.1 mph 27.6 mph N/A   Clear
12:53 PM 73.0 °F - 23.0 °F 15% 30.04 in 10.0 mi NNE 17.3 mph 29.9 mph N/A   Clear
1:53 PM 73.9 °F - 23.0 °F 15% 30.04 in 10.0 mi NE 16.1 mph 23.0 mph N/A   Clear
2:53 PM 75.0 °F - 23.0 °F 14% 30.04 in 10.0 mi North 18.4 mph 25.3 mph N/A   Clear
3:53 PM 75.0 °F - 23.0 °F 14% 30.04 in 10.0 mi NNE 10.4 mph 21.9 mph N/A   Clear
4:53 PM 75.0 °F - 24.1 °F 15% 30.06 in 10.0 mi NNE 8.1 mph 16.1 mph N/A   Clear
5:53 PM 73.0 °F - 24.1 °F 16% 30.06 in 10.0 mi ENE 12.7 mph 20.7 mph N/A   Clear
6:53 PM 72.0 °F - 24.1 °F 17% 30.09 in 10.0 mi NE 9.2 mph 18.4 mph N/A   Clear
7:53 PM 68.0 °F - 27.0 °F 21% 30.10 in 10.0 mi NE 9.2 mph - N/A   Clear
8:53 PM 55.0 °F - 27.0 °F 34% 30.13 in 10.0 mi ENE 6.9 mph - N/A   Clear
9:53 PM 54.0 °F - 27.0 °F 35% 30.13 in 10.0 mi Calm Calm - N/A   Clear
10:53 PM 46.9 °F - 28.9 °F 50% 30.14 in 10.0 mi Calm Calm - N/A   Clear
11:53 PM 42.1 °F 38.4 °F 28.9 °F 60% 30.14 in 10.0 mi East 5.8 mph - N/A   Clear